Weather History for K1H2 - September, 2013

Change the Weather History Date:

Tuesday, September 10, 2013

  Actual Average (KMTO) Record (KMTO)
Temperature  
Mean Temperature 83 °F 69 °F  
Max Temperature 96 °F 81 °F 96 °F (1983)
Min Temperature 70 °F 58 °F 43 °F (1969)
Degree Days  
Heating Degree Days 0 1  
Month to date heating degree days 4  
Since 1 July heating degree days 9  
Cooling Degree Days 18 5  
Month to date cooling degree days 60  
Year to date cooling degree days 980  
Growing Degree Days 33 (Base 50)    
Moisture  
Dew Point 68 °F    
Average Humidity 67    
Maximum Humidity 91    
Minimum Humidity 33    
Precipitation  
Precipitation 0.00 in 0.10 in 3.95 in (2000)
Month to date precipitation 1.14  
Year to date precipitation 27.04  
Sea Level Pressure  
Sea Level Pressure 30.07 in    
Wind  
Wind Speed 3 mph (South)    
Max Wind Speed 10 mph    
Max Gust Speed 20 mph    
Visibility 9 miles    
Events Rain , Thunderstorm    
T = Trace of Precipitation, MM = Missing Value Source: NWS Daily Summary

Daily Weather History Graph

Daily Weather History Graph

Search for Another Location

Airport or City:

Trip Planner

Search our weather history database for the weather conditions in past years. The results will help you decide how hot, cold, wet, or windy it might be!

Date:

Astronomy

Sep. 10, 2013 Rise Set
Actual Time 6:31 AM CDT 7:10 PM CDT
Civil Twilight 6:04 AM CDT 7:36 PM CDT
Nautical Twilight 5:32 AM CDT 8:08 PM CDT
Astronomical Twilight 4:59 AM CDT 8:41 PM CDT
Moon 11:53 AM CDT (9/10) 10:15 PM CDT (9/10)
Length of Visible Light 13h 32m
Length of Day
12h 38m
Waxing Crescent, 28% of the Moon is Illuminated
Sep 10
Waxing Crescent
Sep 12
First Quarter
Sep 19
Full
Sep 26
Last Quarter
Oct 4
New

Hourly Weather History & Observations

Time (CDT) Temp. Heat Index Dew Point Humidity Pressure Visibility Wind Dir Wind Speed Gust Speed Precip Events Conditions
12:15 AM 79.3 °F - 69.3 °F 71% 30.00 in 10.0 mi SSW 4.6 mph - N/A   Clear
12:35 AM 78.8 °F - 69.3 °F 72% 30.00 in 10.0 mi SSW 3.5 mph - N/A   Clear
12:55 AM 78.1 °F - 69.3 °F 74% 30.00 in 10.0 mi SSW 3.5 mph - N/A   Clear
1:15 AM 78.1 °F - 69.4 °F 75% 30.01 in 10.0 mi Calm Calm - N/A   Clear
1:35 AM 77.2 °F - 68.9 °F 76% 30.01 in 10.0 mi Calm Calm - N/A   Clear
1:55 AM 75.9 °F - 68.5 °F 78% 30.02 in 10.0 mi Calm Calm - N/A   Clear
2:15 AM 75.2 °F - 69.8 °F 83% 30.02 in 7.0 mi Calm Calm - N/A   Scattered Clouds
2:35 AM 74.3 °F - 69.8 °F 86% 30.02 in 7.0 mi Calm Calm - N/A   Scattered Clouds
2:55 AM 75.7 °F - 70.3 °F 83% 30.02 in 7.0 mi Calm Calm - N/A   Clear
3:15 AM 75.2 °F - 70.3 °F 85% 30.02 in 7.0 mi South 3.5 mph - N/A   Clear
3:35 AM 75.4 °F - 70.3 °F 84% 30.03 in 7.0 mi Calm Calm - N/A   Scattered Clouds
3:55 AM 74.8 °F - 70.2 °F 85% 30.03 in 7.0 mi South 3.5 mph - N/A   Scattered Clouds
4:15 AM 74.7 °F - 70.2 °F 86% 30.03 in 7.0 mi Calm Calm - N/A   Clear
4:35 AM 72.9 °F - 69.1 °F 88% 30.03 in 5.0 mi Calm Calm - N/A   Clear
4:55 AM 71.8 °F - 68.2 °F 88% 30.04 in 5.0 mi Calm Calm - N/A   Clear
5:15 AM 71.2 °F - 67.8 °F 89% 30.05 in 5.0 mi SSE 3.5 mph - N/A   Clear
5:35 AM 71.4 °F - 68.4 °F 90% 30.05 in 4.0 mi Calm Calm - N/A   Clear
5:55 AM 71.6 °F - 68.4 °F 89% 30.06 in 2.5 mi Calm Calm - N/A   Clear
6:15 AM 71.2 °F - 68.4 °F 91% 30.06 in 1.8 mi Calm Calm - N/A   Mist
6:35 AM 71.8 °F - 69.1 °F 91% 30.07 in 1.5 mi Calm Calm - N/A   Mist
6:55 AM 70.9 °F - 68.2 °F 91% 30.08 in 0.8 mi Calm Calm - N/A   Mist
7:15 AM 72.0 °F - 69.3 °F 91% 30.08 in 1.8 mi Calm Calm - N/A   Mist
7:35 AM 74.1 °F - 71.1 °F 90% 30.08 in 4.0 mi Calm Calm - N/A   Clear
7:55 AM 75.7 °F - 71.1 °F 85% 30.09 in 5.0 mi SSW 3.5 mph - N/A   Haze
8:15 AM 77.5 °F - 71.2 °F 81% 30.09 in 7.0 mi SSW 4.6 mph - N/A   Clear
8:35 AM 79.5 °F - 70.5 °F 74% 30.09 in 10.0 mi SW 3.5 mph - N/A   Clear
8:55 AM 81.3 °F 85.0 °F 70.3 °F 69% 30.10 in 10.0 mi WSW 4.6 mph - N/A   Clear
9:15 AM 83.1 °F 87.1 °F 69.6 °F 64% 30.10 in 10.0 mi SW 3.5 mph - N/A   Clear
9:35 AM 84.7 °F 88.5 °F 68.9 °F 59% 30.10 in 10.0 mi SSW 4.6 mph - N/A   Clear
9:55 AM 87.1 °F 90.9 °F 68.4 °F 54% 30.10 in 10.0 mi WSW 6.9 mph - N/A   Scattered Clouds
10:15 AM 88.0 °F 91.4 °F 67.8 °F 51% 30.10 in 10.0 mi SSW 5.8 mph - N/A   Mostly Cloudy
10:35 AM 87.3 °F 90.9 °F 68.0 °F 53% 30.10 in 10.0 mi SSW 4.6 mph - N/A   Mostly Cloudy
10:55 AM 87.4 °F 91.2 °F 68.5 °F 53% 30.10 in 10.0 mi SSW 5.8 mph - N/A   Mostly Cloudy
11:15 AM 88.5 °F 92.3 °F 68.4 °F 51% 30.10 in 10.0 mi SW 4.6 mph - N/A   Mostly Cloudy
11:35 AM 91.0 °F 95.6 °F 68.7 °F 48% 30.10 in 10.0 mi South 3.5 mph - N/A   Mostly Cloudy
11:55 AM 92.7 °F 95.8 °F 66.7 °F 42% 30.10 in 10.0 mi WSW 5.8 mph - N/A   Scattered Clouds
12:15 PM 94.5 °F 95.6 °F 62.8 °F 35% 30.09 in 10.0 mi WSW 9.2 mph - N/A   Clear
12:35 PM 95.9 °F 97.0 °F 62.8 °F 33% 30.09 in 10.0 mi SSW 8.1 mph - N/A   Scattered Clouds
12:55 PM 94.5 °F 95.6 °F 62.6 °F 35% 30.09 in 10.0 mi SSW 8.1 mph - N/A   Clear
1:15 PM 96.1 °F 97.3 °F 63.0 °F 33% 30.09 in 10.0 mi SW 8.1 mph - N/A   Clear
1:35 PM 95.0 °F 95.6 °F 61.9 °F 33% 30.09 in 10.0 mi WSW 8.1 mph - N/A   Clear
1:55 PM 92.1 °F 94.0 °F 64.4 °F 40% 30.08 in 10.0 mi South 3.5 mph - N/A   Scattered Clouds
2:15 PM 91.9 °F 93.7 °F 64.2 °F 40% 30.08 in 10.0 mi ESE 3.5 mph 12.7 mph N/A   Mostly Cloudy
2:35 PM 94.6 °F 96.8 °F 64.9 °F 37% 30.06 in 10.0 mi South 3.5 mph - N/A   Mostly Cloudy
2:55 PM 93.4 °F 95.2 °F 64.4 °F 38% 30.05 in 10.0 mi SSW 4.6 mph - N/A   Mostly Cloudy
3:15 PM 86.4 °F 87.3 °F 63.1 °F 46% 30.06 in 10.0 mi SSE 9.2 mph 19.6 mph N/A   Scattered Clouds
3:35 PM 85.6 °F 88.5 °F 67.1 °F 54% 30.05 in 10.0 mi ESE 4.6 mph - N/A Thunderstorm Scattered Clouds
3:55 PM 89.4 °F 93.1 °F 68.2 °F 49% 30.05 in 10.0 mi SSE 4.6 mph - N/A   Scattered Clouds
4:15 PM 92.3 °F 96.1 °F 67.3 °F 44% 30.05 in 10.0 mi SE 8.1 mph - N/A   Scattered Clouds
4:35 PM 91.4 °F 97.8 °F 70.7 °F 51% 30.04 in 10.0 mi ESE 9.2 mph - N/A   Scattered Clouds
4:55 PM 88.5 °F 94.0 °F 70.7 °F 55% 30.04 in 10.0 mi SE 3.5 mph - N/A   Scattered Clouds
5:15 PM 88.7 °F 93.9 °F 70.3 °F 54% 30.06 in 10.0 mi East 6.9 mph - N/A   Unknown
5:35 PM 88.2 °F 94.1 °F 71.1 °F 57% 30.06 in 10.0 mi East 10.4 mph - N/A   Scattered Clouds
5:55 PM 86.2 °F 89.1 °F 67.1 °F 53% 30.06 in 10.0 mi ESE 9.2 mph - N/A   Scattered Clouds
6:15 PM 85.5 °F 88.5 °F 67.8 °F 55% 30.07 in 10.0 mi SE 4.6 mph - N/A   Scattered Clouds
6:35 PM 84.4 °F 88.5 °F 69.6 °F 61% 30.07 in 10.0 mi SE 3.5 mph - N/A Rain Light Rain
6:55 PM 80.8 °F 84.7 °F 71.4 °F 73% 30.08 in 10.0 mi ESE 4.6 mph - N/A   Clear
7:15 PM 79.9 °F - 70.9 °F 74% 30.08 in 10.0 mi Calm Calm - N/A   Clear
7:35 PM 79.0 °F - 70.0 °F 74% 30.08 in 10.0 mi ESE 4.6 mph - N/A   Clear
7:55 PM 76.8 °F - 71.6 °F 84% 30.09 in 7.0 mi SE 4.6 mph - N/A   Clear
8:15 PM 77.9 °F - 70.3 °F 77% 30.10 in 10.0 mi SE 3.5 mph - N/A   Clear
8:35 PM 77.0 °F - 69.4 °F 77% 30.10 in 10.0 mi SE 4.6 mph - N/A   Clear
8:55 PM 78.1 °F - 68.4 °F 72% 30.10 in 10.0 mi SSE 4.6 mph - N/A   Clear
9:15 PM 80.1 °F 82.3 °F 66.9 °F 64% 30.11 in 10.0 mi South 5.8 mph - N/A   Clear
9:35 PM 76.8 °F - 67.8 °F 74% 30.11 in 10.0 mi SSE 3.5 mph - N/A   Clear
9:55 PM 75.9 °F - 67.6 °F 75% 30.11 in 10.0 mi SE 4.6 mph - N/A   Clear
10:15 PM 75.9 °F - 68.5 °F 78% 30.11 in 10.0 mi SE 3.5 mph - N/A   Clear
10:35 PM 76.5 °F - 67.3 °F 73% 30.11 in 10.0 mi South 3.5 mph - N/A   Clear
10:55 PM 75.9 °F - 67.1 °F 74% 30.11 in 10.0 mi SSE 3.5 mph - N/A   Clear
11:15 PM 73.6 °F - 68.2 °F 83% 30.11 in 10.0 mi SSE 3.5 mph - N/A   Clear
11:35 PM 75.7 °F - 66.9 °F 74% 30.11 in 10.0 mi SSE 3.5 mph - N/A   Clear
11:55 PM 76.1 °F - 66.9 °F 73% 30.10 in 10.0 mi South 5.8 mph - N/A   Clear